[[{"header":{"parameterUnit":"m.s-1","parameterCategory":2,"la1":30.2991,"la2":30.254,"lo1":-89.0895,"lo2":-89.0444,"dy":0.0017,"dx":0.0017,"nx":28,"ny":28,"refTime":"2025-04-13T21:00:00:Z","depth":"0","parameterNumber":2,"parameterNumberName":"U-component_of_CURRENTS"},"data":[0,0,0,0,0,0,0,0,0,0,0,0,0,0,0,0,0,0,0,0,0,0,0,0,0,0,0,0,0,0,0,0,0,0,0,0,0,0,0,0,0,0,0,0,0,0,0,0,0,0,0,0,0,0,0,0,0,0,0.2207,0.2207,0,0.2193,0.2193,0.2192,0.2164,0.2164,0.2163,0.2163,0.2209,0.221,0.2212,0,0,0,0,0,0,0,0,0,0,0,0,0,0.2225,0.2224,0.2207,0.2207,0.2207,0.2193,0.2193,0.2192,0.2164,0.2164,0.2163,0.2163,0.2208,0.221,0.2212,0,0,0,0,0,0,0,0,0,0,0,0,0,0.2213,0.2224,0.2207,0.2192,0.219,0.2193,0.2192,0.2192,0.2165,0.2164,0.2163,0.2162,0.2208,0.221,0.2212,0.2242,0,0,0.222,0.2221,0,0,0,0,0,0,0,0,0.2214,0.2213,0.2194,0.2193,0.2191,0.218,0.2215,0.2212,0.2165,0.2173,0.2163,0.2162,0.2206,0.2208,0.2205,0.2244,0.2246,0.222,0.2222,0.2223,0.2223,0,0,0,0,0,0,0,0.2215,0.2213,0.22,0.2194,0.2192,0.2191,0.2188,0.2214,0.2194,0.2173,0.2171,0.2171,0.2205,0.2203,0.2206,0.2247,0.222,0.2222,0.2224,0.2225,0.2381,0.2383,0,0,0,0,0,0,0.2218,0.2214,0.2201,0.22,0.2202,0.2191,0.2188,0.2184,0.2193,0.2193,0.2171,0.217,0.2199,0.2203,0.2208,0.2301,0.2223,0.2225,0.2227,0.2378,0.2381,0.2384,0,0,0,0,0,0,0.2219,0.2217,0.2201,0.2208,0.2206,0.2192,0.2187,0.2184,0.2182,0.2191,0.2192,0.2173,0.2199,0.2204,0.224,0.23,0.2226,0.2228,0.2375,0.2379,0.2383,0.245,0,0,0,0,0,0,0.2219,0.2217,0.2218,0.2208,0.2205,0.221,0.2188,0.2184,0.2184,0.2181,0.2193,0.2196,0.2198,0.2237,0.2243,0.2302,0.223,0.2372,0.2377,0.2381,0.2444,0.2456,0.2465,0,0,0,0,0,0.222,0.2221,0.2218,0.2217,0.2206,0.2211,0.221,0.2197,0.2185,0.2191,0.2201,0.2196,0.2274,0.224,0.2247,0.2308,0.2369,0.2375,0.2381,0.244,0.2453,0.2465,0,0,0,0,0,0,0.2226,0.2218,0.2214,0.2212,0.2216,0.2206,0.2208,0.2202,0.2212,0.221,0.2216,0.2221,0.2279,0.2284,0.2247,0.2371,0.2327,0.2335,0.237,0.2383,0.2393,0.2425,0.2232,0,0,0,0,0,0.223,0.2229,0.2226,0.2226,0.2228,0.222,0.2221,0.2214,0.222,0.2222,0.2237,0.2266,0.2311,0.2334,0.2364,0.2423,0.2425,0.2474,0.2484,0.2493,0.2526,0.2576,0.2594,0.2404,0.2404,0.2404,0,0,0.223,0.2228,0.2226,0.2228,0.2226,0.2248,0.2218,0.2221,0.2254,0.223,0.2279,0.2296,0.2333,0.24,0.243,0.2411,0.2541,0.25,0.2507,0.2537,0.2585,0.2603,0.2619,0.2408,0.2407,0.2406,0,0,0.2236,0.2232,0.2236,0.2249,0.2254,0.2261,0.2266,0.2269,0.2283,0.2327,0.2333,0.2392,0.2434,0.2492,0.2524,0.2616,0.2589,0.2619,0.2706,0.2754,0.277,0.2784,0.2771,0.2784,0.2631,0.2631,0.2631,0,0.2237,0.2246,0.224,0.2259,0.2278,0.2274,0.2298,0.2324,0.2344,0.2378,0.2353,0.2471,0.2495,0.2615,0.2651,0.2645,0.2634,0.2648,0.2767,0.2781,0.2794,0.2778,0.2791,0.2635,0.2635,0.2634,0.2634,0,0.2251,0.2269,0.2276,0.2306,0.2329,0.2346,0.2384,0.2417,0.2435,0.2467,0.2567,0.2606,0.2681,0.2707,0.2709,0.2835,0.278,0.2764,0.2729,0.2818,0.2794,0.2807,0.2641,0.2639,0.2638,0.2637,0,0,0.2222,0.2274,0.2278,0.2307,0.2355,0.2373,0.2449,0.2517,0.2579,0.2625,0.2716,0.2818,0.2834,0.2875,0.2894,0.2954,0.3028,0.2905,0.2905,0.2882,0.3083,0.2876,0.2869,0.3016,0.302,0.3023,0.3014,0,0.2234,0.2279,0.2309,0.2372,0.24,0.2448,0.2526,0.2596,0.2654,0.2745,0.2823,0.291,0.29,0.2941,0.3006,0.3028,0.307,0.3029,0.3012,0.3011,0.2809,0.2881,0.2788,0.2758,0.3025,0.3027,0.3029,0,0.2232,0.227,0.232,0.2416,0.2434,0.2483,0.26,0.2672,0.2807,0.2855,0.296,0.3003,0.3129,0.309,0.3187,0.315,0.3135,0.3138,0.3137,0.2939,0.2829,0.2723,0.277,0.2765,0.3047,0.3046,0.3044,0,0.2196,0.2279,0.232,0.2349,0.2455,0.2503,0.2573,0.2702,0.2774,0.293,0.298,0.3122,0.3165,0.3223,0.3208,0.3209,0.3262,0.3258,0.3058,0.304,0.296,0.2927,0.2998,0.3328,0.3328,0.3328,0.3328,0,0.2186,0.2221,0.2308,0.2328,0.2411,0.2494,0.2596,0.269,0.2826,0.2908,0.303,0.3093,0.3198,0.3223,0.3237,0.3154,0.3275,0.3091,0.3043,0.2971,0.2942,0.2928,0.2933,0.3327,0.3328,0.3328,0.3328,0,0.2125,0.2179,0.2234,0.2345,0.2386,0.2442,0.2583,0.266,0.2789,0.2894,0.294,0.3071,0.3089,0.3132,0.3189,0.3131,0.3023,0.305,0.2916,0.2851,0.2639,0.2649,0.2451,0.2409,0.2861,0.2856,0.2852,0,0.2094,0.2112,0.2217,0.2254,0.2299,0.2398,0.247,0.2624,0.2698,0.2855,0.2892,0.2948,0.2946,0.2922,0.2878,0.2832,0.2816,0.268,0.2683,0.2624,0.2605,0.2459,0.2433,0.2603,0.2597,0.2593,0.2589,0,0.2039,0.2069,0.2109,0.2183,0.225,0.2333,0.244,0.2478,0.264,0.2693,0.2728,0.2738,0.2718,0.2623,0.2541,0.2516,0.2556,0.2571,0.2602,0.2481,0.2246,0.2181,0.2574,0.2546,0.2551,0.2554,0.2556,0.2558,0.199,0.1997,0.2045,0.2104,0.2176,0.2227,0.2238,0.2323,0.2368,0.2401,0.2498,0.2448,0.2455,0.2328,0.228,0.2176,0.2184,0.2155,0.2192,0.2062,0.1963,0.2197,0.2043,0.2044,0.2045,0.2046,0.2047,0,0.1926,0.1933,0.1973,0.2022,0.2039,0.2123,0.2184,0.2152,0.2102,0.2169,0.2147,0.211,0.2025,0.2038,0.1961,0.1876,0.1811,0.1847,0.1753,0.177,0.2093,0.2028,0.1751,0.1751,0.1751,0.1751,0.1751,0.1751,0.1893,0.1882,0.1889,0.1869,0.1893,0.1872,0.1861,0.1814,0.1827,0.1748,0.1722,0.1758,0.1852,0.1827,0.1767,0.1737,0.1689,0.1493,0.1557,0.1945,0.1982,0.2016,0.1961,0.1675,0.1675,0.1166,0.1163,0.116]},{"header":{"parameterUnit":"m.s-1","parameterCategory":2,"la1":30.2991,"la2":30.254,"lo1":-89.0895,"lo2":-89.0444,"dy":0.0017,"dx":0.0017,"nx":28,"ny":28,"refTime":"2025-04-13T21:00:00:Z","depth":"0","parameterNumber":3,"parameterNumberName":"V-component_of_CURRENTS"},"data":[0,0,0,0,0,0,0,0,0,0,0,0,0,0,0,0,0,0,0,0,0,0,0,0,0,0,0,0,0,0,0,0,0,0,0,0,0,0,0,0,0,0,0,0,0,0,0,0,0,0,0,0,0,0,0,0,0,0,0.0179,0.0179,0,0.0153,0.0152,0.0152,0.0138,0.0138,0.0138,0.0138,0.0143,0.0143,0.0143,0,0,0,0,0,0,0,0,0,0,0,0,0,0.019,0.019,0.0179,0.0179,0.0178,0.0153,0.0152,0.0152,0.0138,0.0138,0.0138,0.0138,0.0143,0.0143,0.0143,0,0,0,0,0,0,0,0,0,0,0,0,0,0.0176,0.019,0.0179,0.0168,0.0167,0.0153,0.0152,0.0152,0.0138,0.0138,0.0138,0.0138,0.0143,0.0143,0.0143,0.0145,0,0,0.0144,0.0144,0,0,0,0,0,0,0,0,0.0177,0.0176,0.017,0.0169,0.0168,0.0149,0.0158,0.0151,0.0138,0.0149,0.0138,0.0138,0.0148,0.0148,0.0142,0.0145,0.0145,0.0144,0.0144,0.0144,0.0144,0,0,0,0,0,0,0,0.0178,0.0177,0.0168,0.017,0.0168,0.0156,0.0154,0.0156,0.0149,0.0148,0.0147,0.0144,0.0147,0.0142,0.0142,0.0145,0.0144,0.0144,0.0144,0.0144,0.0194,0.0195,0,0,0,0,0,0,0.0183,0.0178,0.0169,0.0167,0.0173,0.0156,0.0154,0.0155,0.0148,0.0147,0.0144,0.0144,0.0141,0.0142,0.0142,0.0175,0.0144,0.0144,0.0144,0.0193,0.0194,0.0196,0,0,0,0,0,0,0.0184,0.0183,0.017,0.0172,0.017,0.0156,0.0157,0.0154,0.015,0.0145,0.0145,0.0144,0.0141,0.0142,0.015,0.0174,0.0144,0.0144,0.0191,0.0193,0.0195,0.022,0,0,0,0,0,0,0.0184,0.0183,0.0186,0.0173,0.017,0.0167,0.0157,0.0154,0.0149,0.0148,0.0145,0.0145,0.0141,0.015,0.015,0.0173,0.0145,0.019,0.0192,0.0194,0.0218,0.0222,0.0226,0,0,0,0,0,0.0185,0.019,0.0186,0.0185,0.0173,0.0167,0.0164,0.0154,0.0149,0.015,0.0149,0.0145,0.0165,0.015,0.0151,0.0175,0.0189,0.0192,0.0194,0.0216,0.0221,0.0226,0,0,0,0,0,0,0.0197,0.0189,0.0184,0.0187,0.0179,0.0165,0.0164,0.0156,0.0155,0.0156,0.015,0.0151,0.0169,0.0169,0.0153,0.0198,0.0181,0.0183,0.0197,0.0202,0.0207,0.0239,0.0145,0,0,0,0,0,0.02,0.0202,0.0192,0.0194,0.0192,0.0178,0.0174,0.0167,0.0163,0.0161,0.0159,0.0166,0.018,0.0188,0.0194,0.0213,0.0216,0.0233,0.0237,0.0241,0.027,0.0294,0.0303,0.0205,0.0205,0.0204,0,0,0.0205,0.0201,0.0202,0.0197,0.0189,0.0195,0.0176,0.0172,0.0184,0.0164,0.0178,0.0176,0.0187,0.0209,0.0219,0.0213,0.0264,0.0244,0.0247,0.0275,0.0298,0.0308,0.0316,0.0206,0.0206,0.0206,0,0,0.0218,0.0213,0.022,0.0218,0.0211,0.0206,0.0207,0.0196,0.0198,0.0205,0.0203,0.0222,0.0225,0.025,0.0262,0.0298,0.0283,0.0293,0.0346,0.0368,0.0377,0.0385,0.0369,0.0375,0.03,0.03,0.03,0,0.0224,0.0236,0.0221,0.0229,0.0235,0.0215,0.023,0.0229,0.0223,0.0244,0.0216,0.0261,0.0255,0.0318,0.0324,0.0311,0.0303,0.0319,0.0374,0.0382,0.0389,0.0372,0.0378,0.0302,0.0301,0.0301,0.0301,0,0.0245,0.0255,0.026,0.0269,0.0271,0.028,0.0278,0.0288,0.0283,0.0292,0.0337,0.0332,0.0372,0.0365,0.035,0.0411,0.0379,0.0369,0.0358,0.0401,0.0379,0.0385,0.0304,0.0303,0.0303,0.0302,0,0,0.0262,0.0274,0.0278,0.0296,0.0296,0.0306,0.0329,0.036,0.0406,0.0394,0.0459,0.0467,0.0473,0.0489,0.0481,0.0495,0.0511,0.0452,0.0453,0.0433,0.053,0.0486,0.0488,0.0502,0.0504,0.0506,0.0481,0,0.0287,0.0319,0.0316,0.0355,0.0374,0.0374,0.0409,0.0435,0.0456,0.0511,0.0524,0.0574,0.052,0.0546,0.0552,0.0532,0.0534,0.0517,0.0497,0.0497,0.045,0.0497,0.0514,0.0493,0.0487,0.0488,0.0489,0,0.0316,0.0336,0.0373,0.0421,0.0431,0.0451,0.0521,0.0553,0.062,0.0641,0.069,0.0697,0.0734,0.0676,0.0668,0.0654,0.0602,0.0569,0.0568,0.0534,0.0467,0.0457,0.0504,0.0489,0.0498,0.0497,0.0497,0,0.0349,0.0384,0.042,0.0431,0.0473,0.0502,0.0535,0.0598,0.0661,0.0738,0.079,0.0821,0.0845,0.0807,0.0723,0.07,0.0695,0.0657,0.0569,0.0563,0.0582,0.0575,0.0619,0.0661,0.0661,0.0661,0.0661,0,0.0384,0.0417,0.044,0.0462,0.0532,0.0545,0.0642,0.0681,0.0772,0.0871,0.0869,0.094,0.0878,0.086,0.0772,0.0689,0.0733,0.06,0.0573,0.0586,0.058,0.0571,0.0547,0.066,0.066,0.066,0.0661,0,0.0413,0.0426,0.0477,0.0524,0.0548,0.06,0.0705,0.0791,0.0851,0.0979,0.101,0.1038,0.1005,0.0921,0.085,0.0754,0.0671,0.0635,0.0631,0.0605,0.0503,0.0479,0.0514,0.0523,0.0547,0.0546,0.0545,0,0.043,0.0455,0.0521,0.0568,0.059,0.0672,0.075,0.0829,0.0926,0.1041,0.1114,0.1112,0.1123,0.0986,0.0832,0.0686,0.0654,0.059,0.0563,0.0524,0.0478,0.0484,0.0491,0.0579,0.0579,0.0579,0.0578,0,0.0462,0.0482,0.0526,0.0623,0.0698,0.0798,0.0905,0.0991,0.1099,0.1184,0.1276,0.1285,0.1154,0.1024,0.0811,0.07,0.0604,0.0575,0.0565,0.0544,0.0531,0.0516,0.0535,0.0575,0.0575,0.0576,0.0576,0.0576,0.0487,0.0525,0.0589,0.0683,0.078,0.0908,0.1003,0.1114,0.1247,0.1379,0.1377,0.1403,0.1228,0.0943,0.0786,0.056,0.0569,0.0499,0.0478,0.0493,0.0503,0.0492,0.0482,0.0482,0.0482,0.0482,0.0481,0,0.0516,0.0566,0.0654,0.0769,0.0885,0.093,0.1102,0.1198,0.1335,0.1447,0.1502,0.1464,0.1222,0.0991,0.0678,0.052,0.0487,0.0442,0.0483,0.0497,0.0518,0.0522,0.0486,0.0486,0.0486,0.0486,0.0486,0.0486,0.0533,0.0608,0.0654,0.083,0.0924,0.1081,0.1179,0.1307,0.1418,0.1564,0.1621,0.1655,0.155,0.0955,0.0621,0.0514,0.0477,0.0417,0.041,0.0434,0.0439,0.0444,0.0445,0.0393,0.0393,0.044,0.044,0.044]}],[{"header":{"parameterUnit":"m.s-1","parameterCategory":2,"la1":30.2991,"la2":30.254,"lo1":-89.0895,"lo2":-89.0444,"dy":0.0017,"dx":0.0017,"nx":28,"ny":28,"refTime":"2025-04-13T21:00:00:Z","depth":"2","parameterNumber":2,"parameterNumberName":"U-component_of_CURRENTS"},"data":[0,0,0,0,0,0,0,0,0,0,0,0,0,0,0,0,0,0,0,0,0,0,0,0,0,0,0,0,0,0,0,0,0,0,0,0,0,0,0,0,0,0,0,0,0,0,0,0,0,0,0,0,0,0,0,0,0,0,0.1934,0.1934,0,0.1919,0.1918,0.1918,0.1902,0.1902,0.1902,0.1902,0.193,0.1931,0.1932,0,0,0,0,0,0,0,0,0,0,0,0,0,0.1955,0.1954,0.1934,0.1934,0.1934,0.1919,0.1918,0.1918,0.1902,0.1902,0.1902,0.1902,0.193,0.1931,0.1932,0,0,0,0,0,0,0,0,0,0,0,0,0,0.1942,0.1954,0.1934,0.1925,0.1924,0.1919,0.1918,0.1918,0.1902,0.1902,0.1902,0.1902,0.1929,0.1931,0.1932,0.1943,0,0,0.1936,0.1936,0,0,0,0,0,0,0,0,0.1943,0.1941,0.1926,0.1926,0.1925,0.1913,0.1936,0.1929,0.1902,0.1909,0.1902,0.1902,0.193,0.1931,0.1926,0.1944,0.1945,0.1936,0.1937,0.1937,0.1938,0,0,0,0,0,0,0,0.1944,0.1942,0.1926,0.1926,0.1925,0.1924,0.1922,0.1934,0.192,0.1908,0.1908,0.1908,0.1929,0.1924,0.1926,0.1946,0.1936,0.1937,0.1938,0.1938,0.2081,0.2084,0,0,0,0,0,0,0.1948,0.1942,0.1927,0.1926,0.1935,0.1924,0.1921,0.1916,0.1919,0.1919,0.1908,0.1907,0.1922,0.1925,0.1927,0.201,0.1937,0.1938,0.1939,0.2078,0.2082,0.2085,0,0,0,0,0,0,0.1948,0.1946,0.1928,0.1935,0.1933,0.1923,0.1918,0.1916,0.1919,0.1919,0.1919,0.1915,0.1922,0.1926,0.195,0.2008,0.1939,0.194,0.2075,0.2079,0.2083,0.213,0,0,0,0,0,0,0.1949,0.1947,0.1949,0.1935,0.1933,0.1931,0.1918,0.1916,0.192,0.1919,0.1924,0.1926,0.1922,0.1949,0.1952,0.2008,0.1941,0.2071,0.2077,0.2082,0.2124,0.2135,0.2145,0,0,0,0,0,0.195,0.1951,0.1949,0.1948,0.1935,0.1931,0.193,0.1922,0.192,0.1924,0.1932,0.1926,0.1989,0.1951,0.1954,0.2013,0.2068,0.2075,0.2082,0.212,0.2133,0.2145,0,0,0,0,0,0,0.196,0.1949,0.1947,0.1945,0.1943,0.1929,0.1933,0.1929,0.1937,0.1941,0.194,0.1943,0.1992,0.1999,0.1957,0.2077,0.2039,0.2046,0.2067,0.2079,0.2089,0.2127,0.1942,0,0,0,0,0,0.1965,0.1963,0.1954,0.1955,0.1955,0.1948,0.1947,0.1944,0.1946,0.1948,0.196,0.1988,0.2023,0.2044,0.2066,0.2117,0.2118,0.2169,0.2179,0.2187,0.2225,0.2263,0.2279,0.2108,0.2107,0.2107,0,0,0.1968,0.1964,0.1962,0.1957,0.1955,0.197,0.1947,0.1951,0.1977,0.1953,0.1998,0.2013,0.2043,0.2101,0.2128,0.2113,0.2231,0.2196,0.2202,0.2236,0.2272,0.2288,0.2303,0.2112,0.2111,0.2111,0,0,0.1974,0.1972,0.1973,0.1979,0.1982,0.1987,0.1993,0.1995,0.2008,0.2042,0.205,0.2106,0.2137,0.2189,0.2215,0.2302,0.2275,0.2312,0.2399,0.2435,0.2448,0.2461,0.2447,0.2457,0.2326,0.2326,0.2326,0,0.1981,0.1983,0.1975,0.1986,0.2004,0.2001,0.2023,0.2039,0.2055,0.2087,0.2067,0.2177,0.2194,0.23,0.2338,0.2328,0.2317,0.2338,0.2445,0.2458,0.2469,0.2452,0.2464,0.2329,0.2328,0.2328,0.2328,0,0.1988,0.2001,0.2006,0.2027,0.2047,0.2062,0.209,0.2121,0.2142,0.2169,0.2262,0.2293,0.2369,0.2391,0.239,0.2507,0.2458,0.2437,0.2403,0.2489,0.2466,0.2476,0.2333,0.2332,0.2331,0.233,0,0,0.1974,0.2004,0.2008,0.2029,0.2072,0.2085,0.2152,0.2211,0.2267,0.231,0.2393,0.2485,0.2513,0.255,0.257,0.2619,0.2678,0.2573,0.2573,0.2541,0.2716,0.2538,0.2532,0.2659,0.2662,0.2665,0.265,0,0.1984,0.2014,0.2036,0.2086,0.2109,0.2151,0.2219,0.2281,0.2333,0.2412,0.2488,0.2567,0.257,0.2612,0.267,0.268,0.2716,0.2682,0.2656,0.2656,0.2473,0.2543,0.2363,0.2323,0.266,0.2662,0.2663,0,0.1981,0.2009,0.205,0.2126,0.2143,0.2184,0.2294,0.2353,0.2471,0.2517,0.2623,0.2661,0.2782,0.2747,0.2833,0.2801,0.2782,0.2775,0.2773,0.261,0.2501,0.2304,0.233,0.2681,0.268,0.2678,0.2677,0,0.1961,0.202,0.2056,0.2077,0.2163,0.2207,0.2271,0.2388,0.2451,0.259,0.2638,0.2774,0.2822,0.2865,0.285,0.2849,0.2887,0.2873,0.2696,0.2681,0.253,0.2495,0.2932,0.2932,0.2932,0.2932,0.2932,0,0.1953,0.1981,0.2047,0.2061,0.2134,0.2207,0.2295,0.2383,0.2509,0.258,0.2692,0.2752,0.2851,0.287,0.2873,0.2798,0.2901,0.2733,0.2683,0.2534,0.2502,0.2824,0.2812,0.2932,0.2932,0.2932,0.2932,0,0.1907,0.1948,0.1988,0.2079,0.2115,0.2166,0.2286,0.2349,0.2475,0.2567,0.2612,0.2742,0.2754,0.2789,0.2827,0.2781,0.2756,0.2694,0.2482,0.2408,0.2525,0.2516,0.2535,0.2529,0.2524,0.252,0.2516,0,0.1883,0.1897,0.1977,0.2006,0.2041,0.2123,0.2183,0.2323,0.2392,0.2534,0.2574,0.2623,0.2616,0.2589,0.2542,0.2486,0.2588,0.2269,0.2256,0.2544,0.2494,0.2493,0.249,0.2067,0.206,0.2055,0.205,0,0.1838,0.186,0.1889,0.1949,0.2,0.2061,0.2157,0.2185,0.2331,0.2381,0.2419,0.2418,0.2393,0.2254,0.2177,0.2134,0.2273,0.2145,0.2532,0.2175,0.2095,0.2048,0.2064,0.2,0.2005,0.2008,0.2011,0.2013,0.1799,0.18,0.1836,0.188,0.1937,0.197,0.1964,0.2041,0.2078,0.2106,0.2191,0.2109,0.212,0.1895,0.1805,0.1739,0.1906,0.1845,0.1867,0.1894,0.1821,0.1735,0.1557,0.1559,0.1561,0.1563,0.1565,0,0.1744,0.1744,0.1773,0.18,0.1805,0.1885,0.1924,0.1877,0.1822,0.187,0.1849,0.1647,0.1531,0.1535,0.1357,0.1324,0.1367,0.1265,0.1337,0.1386,0.1431,0.134,0.0945,0.0943,0.0941,0.0939,0,0,0.1715,0.1697,0.1694,0.1658,0.1675,0.1644,0.1624,0.1562,0.1558,0.1448,0.1393,0.1474,0.1497,0.122,0.1166,0.1029,0.1209,0.0978,0.1477,0.1613,0.1656,0.1761,0.1674,0,0,0,0,0]},{"header":{"parameterUnit":"m.s-1","parameterCategory":2,"la1":30.2991,"la2":30.254,"lo1":-89.0895,"lo2":-89.0444,"dy":0.0017,"dx":0.0017,"nx":28,"ny":28,"refTime":"2025-04-13T21:00:00:Z","depth":"2","parameterNumber":3,"parameterNumberName":"V-component_of_CURRENTS"},"data":[0,0,0,0,0,0,0,0,0,0,0,0,0,0,0,0,0,0,0,0,0,0,0,0,0,0,0,0,0,0,0,0,0,0,0,0,0,0,0,0,0,0,0,0,0,0,0,0,0,0,0,0,0,0,0,0,0,0,0.0114,0.0114,0,0.009,0.0089,0.0089,0.0078,0.0078,0.0078,0.0078,0.0085,0.0085,0.0085,0,0,0,0,0,0,0,0,0,0,0,0,0,0.0127,0.0127,0.0114,0.0114,0.0114,0.009,0.0089,0.0089,0.0078,0.0078,0.0078,0.0079,0.0085,0.0085,0.0085,0,0,0,0,0,0,0,0,0,0,0,0,0,0.0114,0.0127,0.0114,0.0106,0.0105,0.009,0.0089,0.0089,0.0078,0.0078,0.0078,0.0079,0.0085,0.0085,0.0085,0.0084,0,0,0.0085,0.0085,0,0,0,0,0,0,0,0,0.0115,0.0113,0.0107,0.0106,0.0105,0.0087,0.0096,0.0089,0.0078,0.0088,0.0078,0.0079,0.0088,0.0088,0.0083,0.0085,0.0085,0.0085,0.0086,0.0086,0.0086,0,0,0,0,0,0,0,0.0116,0.0114,0.0104,0.0107,0.0105,0.0094,0.0093,0.0094,0.0089,0.0087,0.0086,0.0084,0.0088,0.0083,0.0083,0.0085,0.0085,0.0086,0.0086,0.0086,0.0133,0.0135,0,0,0,0,0,0,0.012,0.0115,0.0105,0.0104,0.011,0.0094,0.0092,0.0093,0.0088,0.0087,0.0084,0.0084,0.0082,0.0083,0.0083,0.0115,0.0086,0.0086,0.0086,0.0132,0.0134,0.0135,0,0,0,0,0,0,0.0121,0.012,0.0106,0.0109,0.0106,0.0094,0.0094,0.0092,0.009,0.0085,0.0085,0.0084,0.0082,0.0083,0.0091,0.0114,0.0086,0.0086,0.0131,0.0133,0.0134,0.0158,0,0,0,0,0,0,0.0121,0.012,0.0122,0.0109,0.0106,0.0102,0.0094,0.0092,0.0088,0.0087,0.0085,0.0085,0.0082,0.0091,0.0091,0.0114,0.0086,0.0129,0.0132,0.0134,0.0155,0.016,0.0164,0,0,0,0,0,0.0122,0.0126,0.0123,0.0121,0.011,0.0102,0.01,0.0091,0.0088,0.0089,0.0089,0.0086,0.0106,0.0091,0.0091,0.0115,0.0128,0.0131,0.0134,0.0154,0.0159,0.0164,0,0,0,0,0,0,0.0134,0.0125,0.0121,0.0123,0.0115,0.0101,0.01,0.0094,0.0093,0.0095,0.009,0.0091,0.0109,0.0109,0.0094,0.0137,0.0121,0.0124,0.0136,0.0141,0.0145,0.0175,0.0086,0,0,0,0,0,0.0137,0.0139,0.0127,0.0129,0.0126,0.0114,0.011,0.0104,0.01,0.0099,0.0098,0.0106,0.0119,0.0127,0.0133,0.015,0.015,0.0171,0.0175,0.0178,0.0204,0.0221,0.0229,0.0144,0.0144,0.0143,0,0,0.0142,0.0138,0.0138,0.0131,0.0125,0.013,0.0112,0.0109,0.012,0.0102,0.0117,0.0115,0.0126,0.0147,0.0157,0.0151,0.0196,0.0182,0.0184,0.0209,0.0225,0.0233,0.024,0.0145,0.0145,0.0145,0,0,0.0154,0.0149,0.0155,0.0152,0.0145,0.0141,0.0142,0.0132,0.0135,0.0141,0.0141,0.0159,0.0162,0.0186,0.0196,0.0231,0.0214,0.0228,0.0277,0.0292,0.03,0.0306,0.0286,0.0291,0.0235,0.0235,0.0235,0,0.0161,0.017,0.0156,0.0163,0.0169,0.015,0.0165,0.0164,0.0159,0.0178,0.0153,0.0195,0.019,0.0248,0.0255,0.0243,0.0233,0.0252,0.0298,0.0304,0.031,0.0289,0.0294,0.0236,0.0236,0.0236,0.0236,0,0.018,0.0189,0.0193,0.0201,0.0203,0.0212,0.0211,0.0222,0.0219,0.0225,0.0267,0.0261,0.0298,0.0292,0.0279,0.0334,0.0303,0.0294,0.0282,0.032,0.0295,0.0299,0.0238,0.0238,0.0238,0.0237,0,0,0.0198,0.0206,0.021,0.0228,0.0228,0.0238,0.0263,0.0292,0.0336,0.0323,0.0381,0.0389,0.0393,0.0408,0.0401,0.0409,0.0418,0.0369,0.0369,0.0345,0.0422,0.0386,0.0387,0.0408,0.0409,0.0411,0.0375,0,0.0223,0.0251,0.0247,0.0285,0.0304,0.0306,0.0341,0.0365,0.0384,0.0432,0.0441,0.0485,0.0437,0.0461,0.0462,0.0438,0.0436,0.0427,0.0395,0.0394,0.0354,0.0395,0.0383,0.035,0.0379,0.038,0.038,0,0.025,0.0268,0.0304,0.035,0.0361,0.0381,0.0451,0.0482,0.054,0.0558,0.0599,0.0601,0.063,0.0576,0.0558,0.0549,0.0496,0.0461,0.0458,0.043,0.0369,0.0324,0.0357,0.0388,0.0387,0.0387,0.0386,0,0.0286,0.0317,0.0352,0.0362,0.0402,0.0433,0.0466,0.0525,0.0585,0.065,0.0696,0.0716,0.0736,0.0689,0.0604,0.0585,0.0563,0.0529,0.0446,0.044,0.0432,0.0424,0.0523,0.0523,0.0523,0.0523,0.0523,0,0.0321,0.0353,0.0373,0.0394,0.0464,0.0477,0.0569,0.0608,0.0691,0.078,0.0771,0.0833,0.0764,0.0737,0.0647,0.056,0.0596,0.0473,0.0446,0.0435,0.0428,0.047,0.0464,0.0521,0.0522,0.0522,0.0522,0,0.0353,0.0363,0.0412,0.0457,0.0481,0.0533,0.0633,0.0714,0.0768,0.0884,0.0911,0.0929,0.0882,0.0791,0.0708,0.062,0.0538,0.0494,0.0466,0.0438,0.0388,0.0384,0.041,0.0409,0.0408,0.0407,0.0406,0,0.0371,0.0395,0.0457,0.0503,0.0524,0.0604,0.0679,0.0753,0.0844,0.0944,0.1011,0.0995,0.0988,0.0838,0.0687,0.0533,0.0517,0.042,0.0396,0.0414,0.0385,0.0383,0.038,0.0374,0.0373,0.0372,0.0372,0,0.0407,0.0425,0.0466,0.0559,0.0632,0.0728,0.0832,0.091,0.1009,0.108,0.1154,0.1146,0.1004,0.0846,0.0634,0.0524,0.0445,0.0399,0.0454,0.0405,0.0378,0.0349,0.0349,0.0365,0.0366,0.0366,0.0367,0.0367,0.0436,0.0471,0.0531,0.0621,0.0716,0.0837,0.0923,0.1026,0.1144,0.1248,0.1234,0.1204,0.1035,0.0748,0.0567,0.0378,0.0399,0.0323,0.0327,0.0331,0.0334,0.0308,0.0279,0.0279,0.028,0.028,0.028,0,0.0467,0.0513,0.0597,0.0706,0.0817,0.0863,0.1022,0.1099,0.1214,0.1284,0.1312,0.1118,0.0932,0.0733,0.0452,0.0291,0.0278,0.0226,0.025,0.0257,0.0264,0.0264,0.0191,0.019,0.0189,0.0189,0,0,0.0486,0.0557,0.0598,0.0765,0.0855,0.1004,0.1091,0.1191,0.1263,0.1307,0.1284,0.1233,0.099,0.0765,0.0536,0.0371,0.0353,0.0327,0.0416,0.048,0.0488,0.0334,0.0345,0,0,0,0,0]}],[{"header":{"parameterUnit":"m.s-1","parameterCategory":2,"la1":30.2991,"la2":30.254,"lo1":-89.0895,"lo2":-89.0444,"dy":0.0017,"dx":0.0017,"nx":28,"ny":28,"refTime":"2025-04-13T21:00:00:Z","depth":"4","parameterNumber":2,"parameterNumberName":"U-component_of_CURRENTS"},"data":[0,0,0,0,0,0,0,0,0,0,0,0,0,0,0,0,0,0,0,0,0,0,0,0,0,0,0,0,0,0,0,0,0,0,0,0,0,0,0,0,0,0,0,0,0,0,0,0,0,0,0,0,0,0,0,0,0,0,0.1105,0.1105,0,0.1097,0.1096,0.1096,0.1109,0.111,0.111,0.1111,0.1105,0.1104,0.1103,0,0,0,0,0,0,0,0,0,0,0,0,0,0.111,0.111,0.1105,0.1105,0.1105,0.1097,0.1096,0.1096,0.1109,0.111,0.1111,0.1112,0.1105,0.1104,0.1103,0,0,0,0,0,0,0,0,0,0,0,0,0,0.1102,0.1109,0.1105,0.1113,0.1114,0.1097,0.1096,0.1096,0.1109,0.111,0.1111,0.1112,0.1105,0.1104,0.1103,0.1073,0,0,0.1099,0.1098,0,0,0,0,0,0,0,0,0.1103,0.1102,0.1112,0.1113,0.1114,0.1108,0.1096,0.1089,0.1108,0.1107,0.1111,0.1112,0.1107,0.1106,0.1097,0.1072,0.1072,0.1099,0.1098,0.1097,0.1097,0,0,0,0,0,0,0,0.1103,0.1102,0.1098,0.1112,0.1113,0.111,0.111,0.1094,0.1099,0.1107,0.1109,0.1113,0.1107,0.1098,0.1097,0.1072,0.1099,0.1098,0.1097,0.1096,0.1107,0.1108,0,0,0,0,0,0,0.111,0.1102,0.1099,0.1099,0.1114,0.1109,0.1109,0.1106,0.1099,0.11,0.1112,0.1114,0.11,0.1099,0.1097,0.1127,0.1097,0.1096,0.1095,0.1106,0.1107,0.1108,0,0,0,0,0,0,0.111,0.111,0.1099,0.1103,0.1102,0.1109,0.1105,0.1105,0.1125,0.1103,0.1103,0.1136,0.1101,0.1099,0.1105,0.1125,0.1096,0.1094,0.1105,0.1106,0.1108,0.1145,0,0,0,0,0,0,0.111,0.111,0.1122,0.1104,0.1103,0.1103,0.1104,0.1104,0.1126,0.1129,0.1122,0.1121,0.1102,0.1107,0.1103,0.1122,0.1093,0.1103,0.1105,0.1107,0.1143,0.1148,0.1152,0,0,0,0,0,0.111,0.1117,0.1122,0.1123,0.1115,0.1103,0.1102,0.1108,0.1126,0.1132,0.1133,0.1123,0.1118,0.1106,0.1102,0.1121,0.1102,0.1105,0.1107,0.114,0.1147,0.1152,0,0,0,0,0,0,0.1127,0.1118,0.1124,0.1129,0.1126,0.1107,0.112,0.1125,0.1129,0.1144,0.1126,0.1124,0.1144,0.1126,0.1114,0.1133,0.1112,0.1114,0.1139,0.1145,0.115,0.1179,0.1092,0,0,0,0,0,0.1136,0.114,0.1129,0.1138,0.114,0.1137,0.1141,0.1144,0.1141,0.1146,0.1139,0.114,0.1144,0.1141,0.1139,0.1136,0.1148,0.1151,0.1155,0.116,0.1182,0.123,0.1242,0.1116,0.1116,0.1116,0,0,0.1147,0.1144,0.1148,0.1143,0.1144,0.1135,0.1142,0.1154,0.1151,0.1143,0.1148,0.116,0.1151,0.1157,0.1163,0.1146,0.1196,0.1163,0.1166,0.1187,0.1234,0.1247,0.1258,0.1118,0.1117,0.1117,0,0,0.1157,0.1168,0.1171,0.1166,0.1172,0.116,0.1172,0.1165,0.1174,0.1172,0.1183,0.1209,0.1189,0.1197,0.1196,0.1226,0.1228,0.123,0.1266,0.1312,0.1323,0.1333,0.1337,0.1348,0.1222,0.1222,0.1222,0,0.1176,0.1168,0.1172,0.1168,0.1165,0.1174,0.1169,0.117,0.1167,0.1196,0.118,0.1222,0.1207,0.1246,0.1255,0.1238,0.1259,0.124,0.1319,0.133,0.1339,0.1342,0.1353,0.1224,0.1224,0.1223,0.1223,0,0.1172,0.1174,0.1178,0.1169,0.1167,0.1167,0.1162,0.1179,0.1192,0.121,0.1266,0.1256,0.1287,0.1286,0.1272,0.1344,0.1333,0.1327,0.1305,0.1354,0.1353,0.1364,0.1227,0.1226,0.1226,0.1225,0,0,0.1184,0.1176,0.1179,0.1177,0.1167,0.1163,0.1174,0.1198,0.1238,0.1254,0.1306,0.1325,0.1365,0.1369,0.1371,0.1407,0.1468,0.1401,0.1403,0.1407,0.1558,0.1412,0.1409,0.1489,0.1492,0.1494,0.1519,0,0.1181,0.1166,0.1166,0.1159,0.1145,0.1162,0.1175,0.121,0.1238,0.1289,0.1338,0.1396,0.138,0.1416,0.1447,0.1475,0.1504,0.1461,0.151,0.151,0.1377,0.1419,0.1503,0.1527,0.1529,0.1531,0.1533,0,0.1168,0.1155,0.1143,0.1154,0.1158,0.1159,0.1202,0.1224,0.131,0.1348,0.1425,0.1471,0.1542,0.1515,0.1589,0.157,0.1575,0.1585,0.1586,0.1452,0.1385,0.1475,0.1552,0.155,0.1549,0.1547,0.1546,0,0.1151,0.1144,0.1135,0.113,0.1141,0.1162,0.1188,0.1257,0.1301,0.1415,0.1463,0.1556,0.1593,0.1646,0.1649,0.1646,0.171,0.1696,0.1569,0.1557,0.1665,0.1654,0.1762,0.1762,0.1762,0.1761,0.1761,0,0.1126,0.1127,0.1129,0.1123,0.1133,0.1161,0.1222,0.1262,0.1349,0.1411,0.1508,0.1546,0.1638,0.1672,0.1682,0.1638,0.1733,0.159,0.1566,0.1673,0.1664,0.167,0.1659,0.1762,0.1762,0.1762,0.1762,0,0.1104,0.1108,0.11,0.1114,0.1122,0.1137,0.1217,0.1258,0.136,0.1427,0.1478,0.1564,0.161,0.1657,0.1717,0.1649,0.1651,0.1613,0.1705,0.1684,0.146,0.1451,0.1487,0.1483,0.1479,0.1476,0.1473,0,0.1085,0.1078,0.1088,0.1076,0.108,0.1123,0.1147,0.1247,0.1279,0.1414,0.1416,0.1514,0.1558,0.1518,0.1575,0.158,0.156,0.154,0.1526,0.1464,0.1438,0.1435,0.1431,0.1466,0.1465,0.1464,0.1463,0,0.1048,0.1069,0.1065,0.1038,0.104,0.1052,0.1088,0.1114,0.1231,0.1327,0.1351,0.1389,0.1408,0.1437,0.1439,0.1444,0.1549,0.1498,0.1507,0.1494,0.1439,0.1416,0.1417,0.145,0.1452,0.1453,0.1454,0,0.1034,0.1021,0.1022,0.0986,0.0986,0.0955,0.1,0.1024,0.1082,0.1215,0.1215,0.131,0.1391,0.1363,0.137,0.1356,0.1342,0.1298,0.1317,0.1333,0.1267,0.1174,0.1094,0,0,0,0,0,0.1001,0.098,0.0958,0.0904,0.09,0.0902,0.0937,0.099,0.11,0.1078,0.115,0.1175,0.1196,0.1236,0.1192,0.1286,0.1338,0.1225,0.1296,0.1373,0.1389,0.1324,0,0,0,0,0,0,0.0977,0.0972,0.0944,0.0845,0.0807,0.0791,0.0823,0.0886,0.0884,0.1003,0.1021,0.1096,0.1131,0.1218,0.1173,0.118,0.1195,0.1277,0.1273,0.1364,0.1379,0.1392,0.133,0,0,0,0,0]},{"header":{"parameterUnit":"m.s-1","parameterCategory":2,"la1":30.2991,"la2":30.254,"lo1":-89.0895,"lo2":-89.0444,"dy":0.0017,"dx":0.0017,"nx":28,"ny":28,"refTime":"2025-04-13T21:00:00:Z","depth":"4","parameterNumber":3,"parameterNumberName":"V-component_of_CURRENTS"},"data":[0,0,0,0,0,0,0,0,0,0,0,0,0,0,0,0,0,0,0,0,0,0,0,0,0,0,0,0,0,0,0,0,0,0,0,0,0,0,0,0,0,0,0,0,0,0,0,0,0,0,0,0,0,0,0,0,0,0,0.0046,0.0045,0,0.0031,0.0031,0.0031,0.0026,0.0026,0.0027,0.0027,0.0051,0.0051,0.0052,0,0,0,0,0,0,0,0,0,0,0,0,0,0.0057,0.0057,0.0046,0.0045,0.0045,0.0031,0.0031,0.0031,0.0026,0.0026,0.0027,0.0027,0.0051,0.0051,0.0052,0,0,0,0,0,0,0,0,0,0,0,0,0,0.0049,0.0057,0.0046,0.0041,0.0041,0.0031,0.0031,0.0031,0.0026,0.0026,0.0027,0.0027,0.005,0.0051,0.0052,0.0057,0,0,0.0055,0.0055,0,0,0,0,0,0,0,0,0.0049,0.0048,0.0042,0.0041,0.0041,0.003,0.0044,0.0041,0.0026,0.0032,0.0027,0.0027,0.0047,0.0049,0.0046,0.0058,0.0059,0.0055,0.0056,0.0056,0.0056,0,0,0,0,0,0,0,0.005,0.0049,0.004,0.0042,0.0041,0.0036,0.0035,0.0043,0.0041,0.0032,0.0031,0.0029,0.0047,0.0045,0.0046,0.0059,0.0055,0.0056,0.0056,0.0057,0.0102,0.0102,0,0,0,0,0,0,0.0052,0.005,0.0041,0.004,0.0045,0.0035,0.0034,0.0034,0.004,0.004,0.0029,0.0029,0.0043,0.0045,0.0047,0.0081,0.0056,0.0057,0.0057,0.0101,0.0102,0.0102,0,0,0,0,0,0,0.0052,0.0051,0.0041,0.0044,0.0042,0.0035,0.0035,0.0034,0.0033,0.0037,0.0038,0.003,0.0043,0.0046,0.0061,0.0081,0.0057,0.0058,0.01,0.0101,0.0102,0.013,0,0,0,0,0,0,0.0052,0.0051,0.0053,0.0044,0.0042,0.004,0.0035,0.0033,0.0032,0.0031,0.0039,0.0041,0.0043,0.006,0.0062,0.0081,0.0059,0.0099,0.0101,0.0102,0.0128,0.0132,0.0135,0,0,0,0,0,0.0053,0.0055,0.0053,0.0052,0.0044,0.004,0.0039,0.0034,0.0032,0.0033,0.0041,0.0041,0.0069,0.0061,0.0064,0.0084,0.0099,0.01,0.0102,0.0127,0.0131,0.0135,0,0,0,0,0,0,0.0061,0.0054,0.0052,0.0052,0.0048,0.0039,0.0039,0.0036,0.0041,0.0043,0.0047,0.005,0.007,0.0072,0.0062,0.01,0.0085,0.0087,0.0103,0.0107,0.0111,0.0122,0.006,0,0,0,0,0,0.0063,0.0064,0.0056,0.0057,0.0055,0.0048,0.0046,0.0043,0.0044,0.0046,0.0051,0.0062,0.0077,0.0088,0.0096,0.0117,0.0103,0.0131,0.0135,0.0137,0.0148,0.0135,0.0137,0.0107,0.0107,0.0107,0,0,0.0067,0.0063,0.0063,0.0059,0.0055,0.0062,0.0047,0.0046,0.0061,0.0049,0.0071,0.0071,0.0084,0.0107,0.0117,0.0112,0.0138,0.0139,0.0142,0.0151,0.0136,0.0139,0.0142,0.0108,0.0108,0.0108,0,0,0.0075,0.0071,0.0075,0.0074,0.0071,0.007,0.0071,0.0066,0.0073,0.0088,0.0088,0.0099,0.0118,0.0132,0.0143,0.0169,0.0152,0.0173,0.0204,0.0191,0.0193,0.0195,0.0174,0.0174,0.0178,0.0179,0.0179,0,0.0081,0.0087,0.0076,0.0082,0.009,0.0077,0.0092,0.0097,0.0099,0.0115,0.0101,0.0128,0.0133,0.0171,0.0182,0.0178,0.0162,0.0188,0.0194,0.0196,0.0198,0.0175,0.0175,0.018,0.018,0.018,0.018,0,0.0094,0.0101,0.0104,0.0114,0.012,0.0128,0.0136,0.0148,0.0152,0.0158,0.0184,0.0179,0.0198,0.0201,0.0203,0.0225,0.0207,0.0195,0.0183,0.0202,0.0178,0.0177,0.0182,0.0182,0.0181,0.0181,0,0,0.0106,0.0113,0.0116,0.0134,0.014,0.0152,0.0181,0.0209,0.0237,0.0231,0.0259,0.0277,0.0263,0.0274,0.0268,0.0261,0.0252,0.0238,0.0236,0.0215,0.0215,0.0201,0.0198,0.0237,0.0237,0.0237,0.019,0,0.0125,0.0146,0.0148,0.0185,0.0201,0.0211,0.0245,0.0269,0.028,0.03,0.0296,0.0319,0.0295,0.0304,0.029,0.0264,0.0252,0.0266,0.0202,0.02,0.0184,0.0198,0.0238,0.0189,0.0189,0.0189,0.0189,0,0.0145,0.0158,0.0189,0.0235,0.0245,0.0269,0.0326,0.0355,0.038,0.0387,0.0391,0.0379,0.0381,0.0347,0.0305,0.0313,0.0272,0.0241,0.0238,0.0219,0.0186,0.0169,0.0186,0.0186,0.0187,0.0187,0.0187,0,0.017,0.0199,0.0229,0.024,0.0279,0.0311,0.0345,0.0382,0.0423,0.0441,0.0455,0.0439,0.0433,0.0381,0.0316,0.0313,0.0251,0.0235,0.0183,0.018,0.0192,0.0191,0.0203,0.0203,0.0203,0.0204,0.0204,0,0.0194,0.0224,0.0243,0.0262,0.0323,0.0342,0.0417,0.0441,0.0479,0.0523,0.05,0.0508,0.0441,0.0395,0.0328,0.025,0.0257,0.0194,0.0172,0.0204,0.0205,0.0191,0.019,0.0202,0.0202,0.0203,0.0203,0,0.0217,0.0225,0.0268,0.0311,0.0334,0.0381,0.0469,0.0519,0.0543,0.0589,0.0599,0.0566,0.0505,0.0426,0.0336,0.0272,0.0197,0.0166,0.0204,0.0184,0.0131,0.0132,0.0109,0.0109,0.0108,0.0107,0.0107,0,0.023,0.0248,0.0303,0.0338,0.0361,0.0436,0.0495,0.0549,0.0591,0.0621,0.0631,0.0593,0.0558,0.0417,0.0327,0.0199,0.0179,0.0136,0.0141,0.0143,0.0124,0.0126,0.0128,0.0106,0.0106,0.0106,0.0106,0,0.0258,0.0273,0.0308,0.0372,0.0433,0.0509,0.0581,0.0618,0.0671,0.0687,0.0666,0.0604,0.0526,0.0414,0.0316,0.0222,0.0163,0.0129,0.013,0.0134,0.0138,0.0121,0.0123,0.0103,0.0104,0.0104,0.0104,0,0.0283,0.0308,0.035,0.0412,0.0486,0.0552,0.0599,0.0643,0.0688,0.0701,0.0688,0.0611,0.0565,0.0425,0.0332,0.0242,0.0219,0.0185,0.0183,0.0184,0.0218,0.0235,0.0218,0,0,0,0,0,0.0303,0.0333,0.0391,0.0455,0.0526,0.057,0.0642,0.0677,0.0716,0.0705,0.07,0.0628,0.0495,0.0434,0.0343,0.0317,0.0202,0.0206,0.0161,0.0091,0.0094,0.012,0,0,0,0,0,0,0.0318,0.0366,0.039,0.0477,0.0529,0.0611,0.0661,0.0687,0.0678,0.069,0.0619,0.0593,0.0462,0.0545,0.0336,0.031,0.0266,0.0147,0.0144,0.009,0.0092,0.0094,0.0122,0,0,0,0,0]}]]